Location: Bukit Nyuki
(2.5885°N, 113.7476°E)
Time: 17:02:49
(UTC+00:00)

Daily predictions for brighter satellites

Satellite Brightness Start Highest point End
(mag) Time Altitude Azimuth Time Altitude Azimuth Time Altitude Azimuth
Cosmos 1461 3.2 12:08:05 10° SSW 12:12:41 77° WNW 12:17:23 10° NNE
Cosmos 836 Rocket 4.3 12:08:06 10° N 12:13:21 83° ENE 12:13:48 74° SE
Meteor 1-22 4.5 12:12:31 10° N 12:17:41 73° ENE 12:17:41 73° ENE
SL-4 R/B 2.9 12:15:57 10° NW 12:20:27 51° SW 12:20:31 51° SW
Meteor 1-20 Rocket 4.2 12:15:30 10° N 12:20:12 61° NE 12:20:12 61° NE
Okean-O 4.0 12:19:10 24° SSW 12:21:05 35° WSW 12:25:08 10° NW
Cosmos 2315 Rocket 4.3 12:15:36 10° SSW 12:21:53 65° W 12:28:11 10° N
ARIANE 5 DEB (SYLDA) 2.9 12:16:13 10° W 12:22:23 59° S 12:22:25 59° S
Ariane H10-3 4.4 12:42:08 10° W 12:47:55 81° N 19:38:14 10° E
ARIANE 5 R/B 3.5 12:38:20 10° W 12:52:48 58° WSW 12:52:48 58° WSW
Spelda 4.4 12:52:46 10° W 12:57:56 84° N 13:33:07 10° E
CZ-3B R/B 4.1 13:18:49 10° WSW 13:31:37 52° NW 13:31:37 52° NW
ATLAS 5 CENTAUR R/B 4.4 13:36:24 10° NW 13:40:05 27° WNW 13:40:05 27° WNW
ARIANE 5 DEB (SYLDA) 4.0 19:34:09 47° ESE 19:34:09 47° ESE 19:37:16 10° E
USA 215 4.5 19:30:13 10° ESE 19:36:08 37° NE 19:42:02 10° NNW
Chandra Rocket (1) 4.4 19:49:23 25° SE 19:49:23 25° SE 19:51:29 10° ESE
ALOS 3.4 20:00:14 10° NNE 20:03:29 42° NE 20:03:29 42° NE
Cosmos 2333 Rocket 3.7 20:11:50 24° NNW 20:11:50 24° NNW 20:14:19 10° N
Cosmos 2237 Rocket 3.5 20:08:57 24° SSE 20:11:29 35° ESE 20:16:34 10° NE
ATLAS 3B R/B 2.7 20:19:21 54° NW 20:19:21 54° NW 20:25:21 10° N
USA 234 3.3 20:18:35 10° NE 20:25:05 73° SE 20:27:30 41° SSW
SL-08 R/B 4.5 20:27:29 31° NNW 20:27:29 31° NNW 20:29:55 10° NNW
IUS-15 SRM-1 4.4 20:29:04 35° N 20:29:04 35° N 20:30:44 10° NE
Cosmos 1850 Rocket 4.0 20:23:05 10° NNW 20:27:42 64° NW 20:27:42 64° NW
Ariane H10-3 4.3 20:30:24 16° E 20:30:24 16° E 20:30:56 10° E
ARIANE 5 R/B 3.5 20:32:58 51° W 20:34:25 87° N 21:02:19 10° E
ARIANE 5 R/B 3.5 20:32:58 51° W 20:34:25 87° N 21:02:20 10° E
ARIANE 5 R/B 3.5 20:32:58 51° W 20:34:26 87° N 21:02:19 10° E
Cosmos 1825 Rocket 3.4 20:34:26 85° S 20:34:33 89° E 20:38:54 10° N
Meteor 2-13 Rocket 4.4 20:31:01 24° S 20:34:50 84° E 20:40:54 10° N
Cosmos 1241 Rocket 4.3 20:31:04 10° NNW 20:37:21 90° SW 20:43:32 10° SSE
Cosmos 1953 Rocket 4.2 20:35:26 24° SSE 20:37:54 54° E 20:42:08 10° NNE
Spelda 4.3 20:38:24 54° S 20:38:42 56° SSE 20:48:32 10° E
Cosmos 2219 Rocket 3.8 20:43:22 18° NW 20:43:22 18° NW 20:45:40 10° NNW
Cosmos 1741 Rocket 4.0 20:36:38 10° NNW 20:49:14 - S 20:41:38 53° W
ASTEX 1 3.9 20:39:44 10° SSE 20:44:37 62° E 20:49:31 10° N
Aureole 1 Rocket 3.7 20:40:03 10° NNW 20:45:16 75° WSW 20:52:10 10° S
Cosmos 1408 2.6 20:47:32 45° SSE 20:48:29 71° E 20:52:00 10° N
COSMOS 2428 4.2 20:56:29 18° WNW 20:56:29 18° WNW 20:59:34 10° NNW
Cosmos 1892 2.7 20:57:03 52° WSW 20:57:22 54° W 21:01:02 10° N
BREEZE-M DEB (TANK) 4.3 20:49:38 17° SW 20:58:30 68° SE 21:02:33 10° NE
Milstar 3 3.8 20:57:28 27° SW 21:00:05 33° SSW 21:09:21 10° SE
Cosmos 192 4.5 21:00:12 30° SW 21:02:22 52° WNW 21:07:10 10° N
Ariane H10 3.2 21:03:30 23° SSE 21:03:30 23° SSE 21:04:37 10° ESE
ARIANE 5 R/B 3.3 21:02:13 23° W 21:07:14 77° S 21:11:03 10° E
Cosmos 1634 Rocket 4.1 21:04:48 10° NNW 21:10:50 53° W 21:16:56 10° SSW
CZ-2C R/B 2.8 21:12:46 14° S 21:12:46 14° S 21:13:38 10° S
H-2A R/B 3.6 21:09:01 10° NNE 21:12:43 49° E 21:16:28 10° S
Atlas 2A Centaur Rocket 4.1 21:10:23 12° SSW 21:13:07 16° S 21:15:16 10° SE
Cosmos 2058 3.2 21:09:45 10° S 21:13:55 69° E 21:18:04 10° N
Cosmos 1980 4.1 21:10:44 21° SW 21:14:00 42° WNW 21:19:18 10° N
IRAS Rocket 4.2 21:12:59 10° S 21:18:32 75° WSW 21:24:05 10° NNW
USA 215 3.8 21:13:09 10° S 21:18:53 33° SW 21:24:37 10° WNW
Cosmos 1825 2.0 21:16:39 10° S 21:20:24 69° W 21:24:07 10° N
ARIANE 5 DEB (SYLDA) 3.6 21:19:17 18° SW 21:21:09 24° SSW 21:23:30 10° SE
ISS -3.2 21:20:50 11° WNW 21:23:48 36° SW 21:26:57 10° SSE
Cosmos 1869 4.4 21:22:48 10° NNE 21:26:41 48° E 21:30:36 10° SSE
SL-16 R/B 2.8 21:22:36 10° S 21:28:12 60° ESE 21:33:46 10° NNE
ARIANE 5 DEB (SYLDA) 2.4 21:26:35 20° WSW 21:28:38 43° S 21:32:22 10° ESE
BLOCK DM-SL R/B 4.0 21:22:58 12° W 21:32:10 70° S 21:36:05 10° E
Cosmos 2084 4.1 21:28:41 10° NW 21:32:55 38° WSW 21:37:12 10° S
Envisat 3.1 21:28:19 10° NNE 21:33:23 81° ESE 21:38:28 10° S
Cosmos 1356 3.9 21:33:16 10° SSW 21:36:25 36° W 21:39:35 10° NNW
Cosmos 1844 3.7 21:31:49 10° NNW 21:37:21 88° ENE 21:42:58 10° SSE
Ariane H10+ 3.3 21:29:43 13° WSW 21:39:23 37° SSW 21:43:33 10° ESE
Cosmos 1627 Rocket 4.5 21:38:44 10° S 21:44:52 83° W 21:50:58 10° N
ARIANE 5 R/B 0.9 21:42:50 10° W 21:45:29 76° S 21:47:15 10° E
Meteor 1-31 Rocket 4.2 21:44:28 10° NNW 21:47:22 20° WNW 21:50:18 10° SW
ARIANE 3 DEB 3.6 21:42:16 10° WSW 21:47:53 40° S 21:50:51 10° ESE
YAOGAN 6 2.7 21:45:01 10° N 21:48:31 54° W 21:52:00 10° SSW
Meteor 1-4 Rocket 3.6 21:46:31 10° NW 21:49:28 24° W 21:52:24 10° SSW
Cosmos 405 Rocket 3.6 21:47:21 10° SSW 21:50:58 31° W 21:54:32 10° NNW
deb Chang Zheng 4 4.0 21:47:32 10° NNE 21:51:42 65° ESE 21:55:53 10° S
CZ-4C R/B 3.0 21:49:43 10° S 21:52:54 47° W 21:55:58 10° NNW
Cosmos 2237 Rocket 3.8 21:51:55 10° WSW 21:55:17 16° WNW 21:58:37 10° NW
